Home   Weather   Buchs   Past weeks

Flag for Switzerland Past Weather in Buchs, St. Gallen, Switzerland — Yesterday and Last 2 Weeks

Now
16 °F

Cold.


Feels Like: 8 °F
Forecast: 20 / 40 °F
Wind: 5 mph from Northwest

Location: Vaduz

Current Time: Jan 21, 2017 at 12:05:05 pm

Latest Report: Jan 21, 2017 at 11:00 am


Visibility: N/A

Pressure: 30.55 "Hg

Humidity: 86%

Dew Point: 12 °F

Location of BuchsLocation

Past Weather in Buchs — Graph

°F

Buchs Temperature Yesterday

Maximum temperature yesterday: 20 °F (at 4:00 pm)
Minimum temperature yesterday: 6 °F (at 5:00 am)
Average temperature yesterday: 14 °F

High & Low Weather Summary for the Past Weeks

 TemperatureHumidityPressure
High51 °F (Jan 12, 10:00 pm)100% (Jan 9, 3:00 am)30.77 "Hg (Jan 9, 3:00 am)
Low6 °F (Jan 19, 8:00 am)43% (Jan 12, 10:00 pm)29.44 "Hg (Jan 13, 2:00 am)
Average25 °F81%30.30 "Hg
* Reported Jan 6 10:00 am — Jan 21 10:00 am, Buchs, Weather by CustomWeather, © 2017

Note: Actual official high and low records may vary slightly from our data, if they occured in-between our weather recording intervals... More about our weather records

Advertising

Buchs Weather History for the Previous 24 Hours

Scroll right to see more
 ConditionsComfort  
Time TempWeatherWind HumidityBarometerVisibility
10:00 am
Sat, Jan 21
15 °FFog.2 mph79%30.55 "Hg1 mi
9:00 am14 °FCold.2 mph94%30.55 "HgN/A
8:00 am14 °FCold.2 mph94%30.55 "HgN/A
7:00 am14 °FOvercast.3 mph100%30.54 "Hg2 mi
6:00 am14 °FCold.2 mph90%30.53 "HgN/A
5:00 am16 °FCold.2 mph91%30.53 "HgN/A
4:00 am16 °FCold.1 mph93%30.53 "HgN/A
3:00 am16 °FCold.No wind94%30.55 "HgN/A
2:00 am17 °FCold.1 mph93%30.55 "HgN/A
1:00 am17 °FCold.2 mph91%30.56 "HgN/A
12:00 am17 °FCold.3 mph91%30.57 "HgN/A
11:00 pm
Fri, Jan 20
18 °FCold.1 mph91%30.56 "HgN/A
10:00 pm18 °FCold.1 mph91%30.55 "HgN/A
9:00 pm18 °FCold.1 mph88%30.56 "HgN/A
8:00 pm18 °FCold.2 mph88%30.56 "HgN/A
7:00 pm19 °FFog.2 mph88%30.55 "Hg5 mi
6:00 pm19 °FCold.3 mph86%30.56 "HgN/A
5:00 pm19 °FCold.3 mph85%30.55 "HgN/A
4:00 pm20 °FFog.2 mph84%30.55 "Hg1 mi
3:00 pm20 °FCold.3 mph83%30.55 "HgN/A
2:00 pm19 °FCold.3 mph83%30.55 "HgN/A
1:00 pm18 °FFog.5 mph83%30.56 "Hg1 mi
12:00 pm18 °FCold.3 mph85%30.58 "HgN/A
Weather by CustomWeather, © 2017

See weather overviewHow to use our weather pages